| time (UTC) | temp F | wind direction | speed MPH | gust MPH | rain 1hr in | rain 24hr in | rain mn in | humidity % | barometer mb |
| 20260510094016 | 68 | 135 | 1.0 | 3.0 | 0.00 | 0.00 | 0.00 | 90 | 1010.0 |
| 20260510093016 | 68 | 0.0 | 3.0 | 0.00 | 0.00 | 0.00 | 90 | 1010.0 | |
| 20260510092016 | 68 | 0.0 | 2.0 | 0.00 | 0.00 | 0.00 | 89 | 1009.9 | |
| 20260510091016 | 68 | 0.0 | 2.0 | 0.00 | 0.00 | 0.00 | 89 | 1009.9 | |
| 20260510090017 | 68 | 0.0 | 1.0 | 0.00 | 0.00 | 0.00 | 89 | 1010.0 | |
| 20260510085017 | 68 | 0.0 | 2.0 | 0.00 | 0.00 | 0.00 | 89 | 1010.0 | |
| 20260510084016 | 68 | 0.0 | 1.0 | 0.00 | 0.00 | 0.00 | 88 | 1009.9 | |
| 20260510083016 | 69 | 158 | 1.0 | 3.0 | 0.00 | 0.00 | 0.00 | 88 | 1009.9 |
| 20260510082016 | 69 | 0.0 | 2.0 | 0.00 | 0.00 | 0.00 | 88 | 1009.8 | |
| 20260510081016 | 69 | 0.0 | 2.0 | 0.00 | 0.00 | 0.00 | 88 | 1009.8 | |
| 20260510080016 | 69 | 0.0 | 3.0 | 0.00 | 0.00 | 0.00 | 88 | 1009.9 | |
| 20260510075016 | 69 | 0.0 | 2.0 | 0.00 | 0.00 | 0.00 | 87 | 1009.9 | |
| 20260510074017 | 69 | 0.0 | 4.0 | 0.00 | 0.00 | 0.00 | 87 | 1009.9 | |
| 20260510073016 | 69 | 0.0 | 4.0 | 0.00 | 0.00 | 0.00 | 87 | 1010.0 | |
| 20260510072016 | 69 | 135 | 1.0 | 4.0 | 0.00 | 0.00 | 0.00 | 87 | 1009.9 |
| 20260510071015 | 69 | 0.0 | 0.0 | 0.00 | 0.00 | 0.00 | 86 | 1010.0 | |
| 20260510070038 | 69 | 0.0 | 0.0 | 0.00 | 0.00 | 0.00 | 86 | 1010.0 | |
| 20260510065036 | 70 | 0.0 | 0.0 | 0.00 | 0.00 | 0.00 | 85 | 1009.8 | |
| 20260510064018 | 70 | 0.0 | 0.0 | 0.00 | 0.00 | 0.00 | 84 | 1010.0 | |
| 20260510063018 | 70 | 0.0 | 0.0 | 0.00 | 0.00 | 0.00 | 84 | 1010.1 | |
| 20260510062039 | 70 | 0.0 | 0.0 | 0.00 | 0.00 | 0.00 | 83 | 1010.0 | |
| 20260510061018 | 71 | 0.0 | 0.0 | 0.00 | 0.00 | 0.00 | 83 | 1009.9 | |
| 20260510060058 | 71 | 0.0 | 0.0 | 0.00 | 0.00 | 0.00 | 82 | 1010.0 | |
| 20260510055018 | 71 | 0.0 | 0.0 | 0.00 | 0.00 | 0.00 | 81 | 1009.9 | |
| 20260510054017 | 71 | 0.0 | 0.0 | 0.00 | 0.00 | 0.00 | 81 | 1009.9 | |
| 20260510053019 | 71 | 0.0 | 0.0 | 0.00 | 0.00 | 0.00 | 80 | 1009.9 | |
| 20260510052017 | 72 | 0.0 | 0.0 | 0.00 | 0.00 | 0.00 | 80 | 1009.8 | |
| 20260510051017 | 72 | 0.0 | 0.0 | 0.00 | 0.00 | 0.00 | 79 | 1009.8 | |
| 20260510050016 | 72 | 0.0 | 0.0 | 0.00 | 0.00 | 0.00 | 78 | 1009.9 | |
| 20260510045017 | 73 | 0.0 | 0.0 | 0.00 | 0.00 | 0.00 | 78 | 1009.8 | |
| 20260510044017 | 73 | 0.0 | 1.0 | 0.00 | 0.00 | 0.00 | 77 | 1009.7 | |
| 20260510043017 | 73 | 0.0 | 1.0 | 0.00 | 0.00 | 0.00 | 76 | 1009.6 | |
| 20260510042017 | 74 | 0.0 | 1.0 | 0.00 | 0.00 | 0.00 | 76 | 1009.5 | |
| 20260510041017 | 74 | 0.0 | 0.0 | 0.00 | 0.00 | 0.00 | 75 | 1009.6 | |
| 20260510040017 | 74 | 0.0 | 0.0 | 0.00 | 0.00 | 0.00 | 74 | 1009.5 | |
| 20260510035016 | 74 | 0.0 | 2.0 | 0.00 | 0.00 | 0.00 | 74 | 1009.2 | |
| 20260510034017 | 75 | 0.0 | 2.0 | 0.00 | 0.00 | 0.00 | 74 | 1009.1 | |
| 20260510033016 | 75 | 0.0 | 3.0 | 0.00 | 0.00 | 0.00 | 74 | 1009.1 | |
| 20260510032016 | 75 | 0.0 | 3.0 | 0.00 | 0.00 | 0.00 | 74 | 1008.8 | |
| 20260510031017 | 75 | 0.0 | 2.0 | 0.00 | 0.00 | 0.00 | 73 | 1008.7 | |
| 20260510030017 | 76 | 0.0 | 0.0 | 0.00 | 0.00 | 0.00 | 70 | 1008.6 | |
| 20260510025016 | 76 | 0.0 | 0.0 | 0.00 | 0.00 | 0.00 | 68 | 1008.3 | |
| 20260510024018 | 77 | 0.0 | 0.0 | 0.00 | 0.00 | 0.00 | 65 | 1008.3 | |
| 20260510023017 | 78 | 0.0 | 0.0 | 0.00 | 0.00 | 0.00 | 63 | 1008.2 | |
| 20260510022017 | 78 | 0.0 | 1.0 | 0.00 | 0.00 | 0.00 | 63 | 1008.1 | |
| 20260510021016 | 79 | 0.0 | 2.0 | 0.00 | 0.00 | 0.00 | 61 | 1007.9 | |
| 20260510020037 | 80 | 0.0 | 0.0 | 0.00 | 0.00 | 0.00 | 59 | 1007.7 | |
| 20260510015016 | 80 | 0.0 | 0.0 | 0.00 | 0.00 | 0.00 | 58 | 1007.5 | |
| 20260510014016 | 81 | 0.0 | 0.0 | 0.00 | 0.00 | 0.00 | 57 | 1007.5 | |
| 20260510013036 | 82 | 0.0 | 0.0 | 0.00 | 0.00 | 0.00 | 56 | 1007.4 | |
| 20260510012016 | 83 | 0.0 | 0.0 | 0.00 | 0.00 | 0.00 | 54 | 1007.4 | |
| 20260510011016 | 84 | 0.0 | 0.0 | 0.00 | 0.00 | 0.00 | 52 | 1007.4 | |
| 20260510010017 | 85 | 0.0 | 0.0 | 0.00 | 0.00 | 0.00 | 50 | 1007.4 | |
| 20260510005016 | 86 | 0.0 | 0.0 | 0.00 | 0.00 | 0.00 | 50 | 1007.3 | |
| 20260510004056 | 87 | 0.0 | 2.0 | 0.00 | 0.00 | 0.00 | 48 | 1007.4 | |
| 20260510003016 | 88 | 0.0 | 0.0 | 0.00 | 0.00 | 0.00 | 49 | 1007.4 | |
| 20260510002036 | 88 | 0.0 | 1.0 | 0.00 | 0.00 | 0.00 | 47 | 1007.3 | |
| 20260510001016 | 89 | 0.0 | 0.0 | 0.00 | 0.00 | 0.00 | 44 | 1007.4 | |
| 20260510000036 | 90 | 0.0 | 1.0 | 0.00 | 0.00 | 0.00 | 43 | 1007.3 | |
| 20260509235017 | 91 | 23 | 1.0 | 4.0 | 0.00 | 0.00 | 0.00 | 40 | 1007.4 |
| 20260509234016 | 91 | 0.0 | 4.0 | 0.00 | 0.00 | 0.00 | 41 | 1007.4 | |
| 20260509233016 | 91 | 0.0 | 2.0 | 0.00 | 0.00 | 0.00 | 42 | 1007.4 | |
| 20260509232016 | 90 | 0.0 | 0.0 | 0.00 | 0.00 | 0.00 | 42 | 1007.4 | |
| 20260509231017 | 90 | 0.0 | 2.0 | 0.00 | 0.00 | 0.00 | 42 | 1007.4 | |
| 20260509230016 | 90 | 0.0 | 0.0 | 0.00 | 0.00 | 0.00 | 41 | 1007.5 | |
| 20260509225016 | 91 | 0.0 | 2.0 | 0.00 | 0.00 | 0.00 | 40 | 1007.6 | |
| 20260509224016 | 92 | 203 | 1.0 | 3.0 | 0.00 | 0.00 | 0.00 | 39 | 1007.8 |
| 20260509223036 | 92 | 203 | 2.0 | 4.0 | 0.00 | 0.00 | 0.00 | 40 | 1007.7 |
| 20260509222016 | 92 | 0 | 1.0 | 4.0 | 0.00 | 0.00 | 0.00 | 40 | 1007.7 |
| 20260509221016 | 93 | 23 | 2.0 | 5.0 | 0.00 | 0.00 | 0.00 | 39 | 1007.7 |
| 20260509220015 | 93 | 248 | 2.0 | 5.0 | 0.00 | 0.00 | 0.00 | 37 | 1007.8 |
| 20260509215039 | 94 | 158 | 2.0 | 5.0 | 0.00 | 0.00 | 0.00 | 40 | 1007.8 |
| 20260509214018 | 93 | 203 | 1.0 | 9.0 | 0.00 | 0.00 | 0.00 | 40 | 1007.8 |
| 20260509213018 | 92 | 338 | 1.0 | 4.0 | 0.00 | 0.00 | 0.00 | 40 | 1008.0 |
| 20260509212017 | 92 | 270 | 3.0 | 7.0 | 0.00 | 0.00 | 0.00 | 40 | 1008.2 |
| 20260509211017 | 91 | 338 | 1.0 | 5.0 | 0.00 | 0.00 | 0.00 | 42 | 1008.0 |
| 20260509210017 | 92 | 180 | 2.0 | 10.0 | 0.00 | 0.00 | 0.00 | 42 | 1008.3 |
| 20260509205039 | 92 | 293 | 2.0 | 5.0 | 0.00 | 0.00 | 0.00 | 41 | 1008.5 |
| 20260509204017 | 92 | 225 | 2.0 | 7.0 | 0.00 | 0.00 | 0.00 | 43 | 1008.8 |
| 20260509203017 | 92 | 248 | 2.0 | 8.0 | 0.00 | 0.00 | 0.00 | 45 | 1009.0 |
| 20260509202017 | 91 | 270 | 2.0 | 6.0 | 0.00 | 0.00 | 0.00 | 47 | 1009.1 |
| 20260509201017 | 91 | 225 | 2.0 | 5.0 | 0.00 | 0.00 | 0.00 | 44 | 1009.1 |
| 20260509200017 | 90 | 293 | 3.0 | 7.0 | 0.00 | 0.00 | 0.00 | 43 | 1009.2 |
| 20260509195018 | 89 | 270 | 3.0 | 8.0 | 0.00 | 0.00 | 0.00 | 44 | 1009.3 |
| 20260509194017 | 89 | 203 | 2.0 | 9.0 | 0.00 | 0.00 | 0.00 | 49 | 1009.5 |
| 20260509193018 | 90 | 270 | 2.0 | 9.0 | 0.00 | 0.00 | 0.00 | 47 | 1009.5 |
| 20260509192018 | 89 | 248 | 2.0 | 8.0 | 0.00 | 0.00 | 0.00 | 47 | 1009.5 |
| 20260509191017 | 89 | 248 | 3.0 | 10.0 | 0.00 | 0.00 | 0.00 | 49 | 1009.7 |
| 20260509190037 | 89 | 225 | 3.0 | 10.0 | 0.00 | 0.00 | 0.00 | 49 | 1009.7 |
| 20260509185057 | 88 | 180 | 3.0 | 9.0 | 0.00 | 0.00 | 0.00 | 51 | 1009.7 |
| 20260509184017 | 87 | 270 | 2.0 | 7.0 | 0.00 | 0.00 | 0.00 | 53 | 1010.0 |
| 20260509183017 | 87 | 225 | 2.0 | 6.0 | 0.00 | 0.00 | 0.00 | 55 | 1010.2 |
| 20260509182038 | 87 | 158 | 3.0 | 10.0 | 0.00 | 0.00 | 0.00 | 55 | 1010.2 |
| 20260509181017 | 86 | 270 | 3.0 | 10.0 | 0.00 | 0.00 | 0.00 | 58 | 1010.4 |
| 20260509180038 | 86 | 225 | 1.0 | 6.0 | 0.00 | 0.00 | 0.00 | 60 | 1010.5 |
| 20260509175017 | 85 | 338 | 2.0 | 7.0 | 0.00 | 0.00 | 0.00 | 61 | 1010.7 |
| 20260509174017 | 86 | 225 | 2.0 | 5.0 | 0.00 | 0.00 | 0.00 | 61 | 1010.9 |
| 20260509173018 | 86 | 225 | 2.0 | 10.0 | 0.00 | 0.00 | 0.00 | 60 | 1011.0 |
| 20260509172017 | 85 | 158 | 2.0 | 9.0 | 0.00 | 0.00 | 0.00 | 65 | 1011.0 |
| 20260509171017 | 84 | 158 | 2.0 | 6.0 | 0.00 | 0.00 | 0.00 | 67 | 1011.0 |
| 20260509170017 | 83 | 158 | 2.0 | 10.0 | 0.00 | 0.00 | 0.00 | 68 | 1011.1 |
| 20260509165037 | 83 | 113 | 3.0 | 6.0 | 0.00 | 0.00 | 0.00 | 70 | 1011.1 |
| 20260509164017 | 82 | 135 | 2.0 | 5.0 | 0.00 | 0.00 | 0.00 | 73 | 1011.1 |
| 20260509163017 | 80 | 135 | 2.0 | 6.0 | 0.00 | 0.00 | 0.00 | 75 | 1010.9 |
| 20260509162016 | 80 | 135 | 3.0 | 9.0 | 0.00 | 0.00 | 0.00 | 74 | 1011.1 |
| 20260509161017 | 79 | 135 | 2.0 | 7.0 | 0.00 | 0.00 | 0.00 | 78 | 1011.1 |
| 20260509160017 | 78 | 135 | 2.0 | 7.0 | 0.00 | 0.00 | 0.00 | 81 | 1010.9 |
| 20260509155016 | 77 | 135 | 2.0 | 7.0 | 0.00 | 0.00 | 0.00 | 83 | 1010.7 |
| 20260509154017 | 75 | 113 | 2.0 | 5.0 | 0.00 | 0.00 | 0.00 | 91 | 1010.8 |
| 20260509153016 | 74 | 113 | 2.0 | 5.0 | 0.00 | 0.00 | 0.00 | 94 | 1010.2 |
| 20260509152017 | 72 | 113 | 2.0 | 6.0 | 0.00 | 0.00 | 0.00 | 95 | 1010.2 |
| 20260509151016 | 71 | 158 | 1.0 | 5.0 | 0.00 | 0.00 | 0.00 | 95 | 1009.8 |
| 20260509150016 | 70 | 203 | 1.0 | 4.0 | 0.00 | 0.00 | 0.00 | 95 | 1009.9 |
| 20260509145016 | 70 | 203 | 2.0 | 6.0 | 0.00 | 0.00 | 0.00 | 95 | 1009.9 |
| 20260509144036 | 69 | 135 | 2.0 | 5.0 | 0.00 | 0.00 | 0.00 | 95 | 1010.1 |
| 20260509143016 | 69 | 158 | 2.0 | 4.0 | 0.00 | 0.00 | 0.00 | 95 | 1009.7 |
| 20260509142058 | 68 | 135 | 2.0 | 5.0 | 0.00 | 0.00 | 0.00 | 95 | 1009.7 |
| 20260509141016 | 68 | 225 | 2.0 | 5.0 | 0.00 | 0.00 | 0.00 | 95 | 1009.9 |
| 20260509140018 | 68 | 113 | 1.0 | 4.0 | 0.00 | 0.00 | 0.00 | 95 | 1009.9 |
| 20260509135016 | 68 | 338 | 1.0 | 3.0 | 0.00 | 0.00 | 0.00 | 95 | 1010.2 |
| 20260509134016 | 67 | 338 | 1.0 | 4.0 | 0.00 | 0.00 | 0.00 | 95 | 1010.5 |
| 20260509133016 | 67 | 0 | 2.0 | 5.0 | 0.00 | 0.00 | 0.00 | 95 | 1010.6 |
| 20260509132036 | 67 | 23 | 2.0 | 5.0 | 0.00 | 0.00 | 0.00 | 95 | 1010.5 |
| 20260509131017 | 68 | 45 | 1.0 | 2.0 | 0.00 | 0.00 | 0.00 | 95 | 1010.5 |
| 20260509130016 | 67 | 23 | 1.0 | 4.0 | 0.00 | 0.00 | 0.00 | 95 | 1010.4 |
| 20260509125016 | 67 | 23 | 1.0 | 3.0 | 0.00 | 0.00 | 0.00 | 95 | 1010.4 |
| 20260509124016 | 67 | 23 | 1.0 | 4.0 | 0.00 | 0.00 | 0.00 | 95 | 1010.4 |
| 20260509123016 | 67 | 23 | 2.0 | 5.0 | 0.00 | 0.00 | 0.00 | 95 | 1010.2 |
| 20260509122016 | 67 | 45 | 2.0 | 5.0 | 0.00 | 0.00 | 0.00 | 95 | 1010.4 |
| 20260509121016 | 67 | 45 | 2.0 | 6.0 | 0.00 | 0.00 | 0.00 | 95 | 1010.6 |
| 20260509120016 | 67 | 338 | 2.0 | 5.0 | 0.00 | 0.00 | 0.00 | 95 | 1010.4 |
| 20260509115017 | 67 | 68 | 2.0 | 6.0 | 0.00 | 0.00 | 0.00 | 95 | 1010.6 |
| 20260509114016 | 68 | 0 | 4.0 | 7.0 | 0.00 | 0.00 | 0.00 | 95 | 1010.7 |
| 20260509113017 | 68 | 23 | 3.0 | 6.0 | 0.00 | 0.00 | 0.00 | 95 | 1010.8 |
| 20260509112016 | 68 | 0 | 5.0 | 12.0 | 0.00 | 0.00 | 0.00 | 95 | 1010.9 |
| 20260509111016 | 68 | 0 | 3.0 | 9.0 | 0.00 | 0.00 | 0.00 | 95 | 1010.9 |
| 20260509110017 | 68 | 0 | 4.0 | 10.0 | 0.00 | 0.00 | 0.00 | 95 | 1011.1 |
| 20260509105016 | 69 | 0 | 3.0 | 10.0 | 0.00 | 0.00 | 0.00 | 95 | 1011.0 |
| 20260509104016 | 69 | 0.0 | 0.0 | 0.00 | 0.00 | 0.00 | 95 | 1010.1 | |
| 20260509103016 | 69 | 0.0 | 0.0 | 0.00 | 0.00 | 0.00 | 95 | 1009.9 | |
| 20260509102016 | 68 | 0.0 | 0.0 | 0.00 | 0.00 | 0.00 | 95 | 1009.9 | |
| 20260509101015 | 68 | 0.0 | 0.0 | 0.00 | 0.00 | 0.00 | 95 | 1009.7 | |
| 20260509100037 | 68 | 0.0 | 0.0 | 0.00 | 0.00 | 0.00 | 94 | 1009.4 | |
| 20260509095016 | 68 | 0.0 | 0.0 | 0.00 | 0.00 | 0.00 | 94 | 1009.4 | |
| 20260509094119 | 68 | 0.0 | 0.0 | 0.00 | 0.00 | 0.00 | 94 | 1009.5 |